Location: Anumalkud?ru
(16.4847°N, 80.6636°E)
Time: 23:27:47
(UTC+00:00)

Cosmos 540 Rocket - Pass Details

Date: 11 April 2026
Orbit: 734 x 748 km, 74.1° (Epoch: 9 May)

Event Time Altitude Azimuth Distance (km) Brightness Sun altitude
Exits shadow 22:23:13 58° 25° (NNE) 860 3.8 -29.0°
Drops below altitude 10° 22:27:18 10° 16° (NNE) 2,249 6.3 -28.1°
Sets 22:29:40 0° 15° (NNE) 3,175 7.1 -27.5°
